Weather History for KLWA - April, 2014

Change the Weather History Date:

Wednesday, April 2, 2014

  Actual Average (KBIV) Record (KBIV)
Temperature  
Mean Temperature 34 °F 43 °F  
Max Temperature 45 °F 52 °F 76 °F (1963)
Min Temperature 26 °F 34 °F 14 °F (1965)
Degree Days  
Heating Degree Days 30 22  
Month to date heating degree days 44  
Since 1 July heating degree days 5418  
Cooling Degree Days 0 0  
Month to date cooling degree days 0  
Year to date cooling degree days 0  
Moisture  
Dew Point 27 °F    
Average Humidity 67    
Maximum Humidity 95    
Minimum Humidity 51    
Precipitation  
Precipitation 0.00 in 0.08 in 0.69 in (1969)
Month to date precipitation 0.15  
Year to date precipitation 6.31  
Sea Level Pressure  
Sea Level Pressure 30.12 in    
Wind  
Wind Speed 5 mph (NNW)    
Max Wind Speed 12 mph    
Max Gust Speed -    
Visibility 10 miles    
Events      
T = Trace of Precipitation, MM = Missing Value Source: NWS Daily Summary

Daily Weather History Graph

Daily Weather History Graph

Search for Another Location

Airport or City:

Trip Planner

Search our weather history database for the weather conditions in past years. The results will help you decide how hot, cold, wet, or windy it might be!

Date:

Astronomy

Apr. 02, 2014 Rise Set
Actual Time 7:25 AM EDT 8:12 PM EDT
Civil Twilight 6:57 AM EDT 8:40 PM EDT
Nautical Twilight 6:23 AM EDT 9:14 PM EDT
Astronomical Twilight 5:48 AM EDT 9:49 PM EDT
Moon 9:06 AM EDT (4/2) 11:38 PM EDT (4/2)
Length of Visible Light 13h 43m
Length of Day
12h 46m
Waxing Crescent, 10% of the Moon is Illuminated
Apr 2
Waxing Crescent
Apr 7
First Quarter
Apr 15
Full
Apr 22
Last Quarter
Apr 29
New

Hourly Weather History & Observations

Time (EDT) Temp. Windchill Dew Point Humidity Pressure Visibility Wind Dir Wind Speed Gust Speed Precip Events Conditions
12:15 AM 38.3 °F 34.8 °F 29.7 °F 71% 30.06 in 10.0 mi West 4.6 mph - N/A   Clear
12:36 AM 38.5 °F 35.0 °F 29.8 °F 71% 30.07 in 10.0 mi West 4.6 mph - N/A   Clear
12:55 AM 38.8 °F 33.8 °F 29.8 °F 70% 30.07 in 10.0 mi WNW 6.9 mph - N/A   Clear
1:15 AM 38.7 °F 33.6 °F 29.7 °F 70% 30.07 in 10.0 mi WNW 6.9 mph - N/A   Mostly Cloudy
1:36 AM 38.7 °F 33.6 °F 29.3 °F 69% 30.07 in 10.0 mi WNW 6.9 mph - N/A   Mostly Cloudy
1:55 AM 39.4 °F 33.8 °F 28.6 °F 65% 30.06 in 10.0 mi WNW 8.1 mph - N/A   Scattered Clouds
2:15 AM 38.3 °F 33.9 °F 29.3 °F 70% 30.07 in 10.0 mi WNW 5.8 mph - N/A   Mostly Cloudy
2:36 AM 38.3 °F 32.5 °F 29.1 °F 70% 30.08 in 10.0 mi WNW 8.1 mph - N/A   Overcast
2:55 AM 37.6 °F 33.1 °F 29.5 °F 73% 30.08 in 10.0 mi WNW 5.8 mph - N/A   Overcast
3:16 AM 35.8 °F 33.0 °F 30.0 °F 80% 30.08 in 10.0 mi NNW 3.5 mph - N/A   Overcast
3:35 AM 35.2 °F - 30.0 °F 81% 30.07 in 10.0 mi Calm Calm - N/A   Mostly Cloudy
3:55 AM 34.7 °F - 30.0 °F 83% 30.07 in 10.0 mi Calm Calm - N/A   Scattered Clouds
4:16 AM 33.8 °F 29.6 °F 29.5 °F 84% 30.05 in 10.0 mi North 4.6 mph - N/A   Scattered Clouds
4:35 AM 32.5 °F - 28.4 °F 85% 30.08 in 10.0 mi Calm Calm - N/A   Scattered Clouds
4:55 AM 31.1 °F - 27.9 °F 88% 30.08 in 10.0 mi Calm Calm - N/A   Clear
5:16 AM 29.3 °F - 27.0 °F 91% 30.09 in 10.0 mi Calm Calm - N/A   Clear
5:35 AM 28.4 °F - 26.6 °F 93% 30.09 in 10.0 mi Calm Calm - N/A   Clear
5:56 AM 28.2 °F - 26.6 °F 94% 30.10 in 10.0 mi Calm Calm - N/A   Clear
6:15 AM 28.2 °F - 26.8 °F 94% 30.10 in 7.0 mi Calm Calm - N/A   Clear
6:35 AM 27.1 °F - 25.9 °F 95% 30.11 in 7.0 mi Calm Calm - N/A   Clear
6:56 AM 27.1 °F - 25.9 °F 95% 30.12 in 7.0 mi Calm Calm - N/A   Clear
7:15 AM 26.1 °F - 24.8 °F 95% 30.13 in 7.0 mi Calm Calm - N/A   Clear
8:55 AM 34.0 °F - 25.9 °F 72% 30.17 in 10.0 mi Calm Calm - N/A   Clear
9:15 AM 35.2 °F 32.4 °F 25.7 °F 68% 30.17 in 10.0 mi ENE 3.5 mph - N/A   Clear
9:36 AM 36.1 °F 32.3 °F 24.3 °F 62% 30.18 in 10.0 mi East 4.6 mph - N/A   Clear
9:55 AM 37.0 °F 32.4 °F 24.1 °F 59% 30.18 in 10.0 mi NE 5.8 mph - N/A   Clear
10:16 AM 37.9 °F 34.4 °F 24.6 °F 59% 30.18 in 10.0 mi NNE 4.6 mph - N/A   Clear
10:35 AM 38.1 °F 35.7 °F 24.1 °F 57% 30.18 in 10.0 mi NE 3.5 mph - N/A   Clear
10:55 AM 38.3 °F 33.9 °F 24.1 °F 57% 30.17 in 10.0 mi NE 5.8 mph - N/A   Clear
11:16 AM 40.1 °F - 24.8 °F 54% 30.18 in 10.0 mi Calm Calm - N/A   Clear
11:35 AM 40.5 °F - 25.0 °F 54% 30.18 in 10.0 mi Calm Calm - N/A   Clear
11:55 AM 41.0 °F 36.4 °F 25.9 °F 55% 30.18 in 10.0 mi NW 6.9 mph - N/A   Clear
12:16 PM 41.9 °F 38.2 °F 26.2 °F 54% 30.18 in 10.0 mi North 5.8 mph - N/A   Clear
12:35 PM 41.7 °F 37.3 °F 25.9 °F 53% 30.18 in 10.0 mi NW 6.9 mph - N/A   Clear
12:56 PM 42.3 °F 37.3 °F 26.2 °F 53% 30.19 in 10.0 mi NW 8.1 mph - N/A   Clear
1:15 PM 41.4 °F 35.2 °F 26.2 °F 55% 30.18 in 10.0 mi NNW 10.4 mph - N/A   Clear
1:56 PM 41.9 °F 36.9 °F 26.2 °F 54% 30.17 in 10.0 mi NW 8.1 mph - N/A   Clear
2:15 PM 41.7 °F 35.6 °F 25.9 °F 53% 30.18 in 10.0 mi NW 10.4 mph - N/A   Clear
2:35 PM 40.8 °F 35.6 °F 26.2 °F 56% 30.18 in 10.0 mi NNW 8.1 mph - N/A   Clear
2:56 PM 41.0 °F 35.2 °F 27.1 °F 58% 30.17 in 10.0 mi North 9.2 mph - N/A   Clear
3:15 PM 41.2 °F 35.0 °F 26.8 °F 57% 30.17 in 10.0 mi NNW 10.4 mph - N/A   Clear
3:35 PM 42.3 °F 37.3 °F 27.3 °F 56% 30.16 in 10.0 mi North 8.1 mph - N/A   Clear
3:56 PM 42.3 °F 36.8 °F 26.6 °F 54% 30.15 in 10.0 mi NNW 9.2 mph - N/A   Clear
4:15 PM 43.2 °F 37.9 °F 27.3 °F 54% 30.14 in 10.0 mi North 9.2 mph - N/A   Clear
4:35 PM 43.3 °F 38.1 °F 26.6 °F 52% 30.14 in 10.0 mi NW 9.2 mph - N/A   Clear
4:55 PM 43.5 °F 38.3 °F 26.4 °F 51% 30.13 in 10.0 mi NNW 9.2 mph - N/A   Clear
5:15 PM 42.3 °F 35.9 °F 25.5 °F 52% 30.13 in 10.0 mi NNW 11.5 mph - N/A   Clear
5:36 PM 40.6 °F 36.0 °F 24.8 °F 53% 30.12 in 10.0 mi North 6.9 mph - N/A   Clear
5:55 PM 40.1 °F 33.6 °F 24.4 °F 54% 30.12 in 10.0 mi NNW 10.4 mph - N/A   Clear
6:15 PM 39.4 °F 33.8 °F 25.0 °F 56% 30.12 in 10.0 mi NNW 8.1 mph - N/A   Clear
6:36 PM 38.5 °F 33.4 °F 26.2 °F 61% 30.12 in 10.0 mi NNW 6.9 mph - N/A   Clear
6:55 PM 37.4 °F 32.8 °F 26.4 °F 65% 30.12 in 10.0 mi NW 5.8 mph - N/A   Clear
7:16 PM 36.1 °F 31.4 °F 27.0 °F 69% 30.12 in 10.0 mi North 5.8 mph - N/A   Clear
7:35 PM 35.4 °F 31.5 °F 27.3 °F 72% 30.12 in 10.0 mi NW 4.6 mph - N/A   Clear
7:55 PM 35.1 °F - 27.9 °F 75% 30.12 in 10.0 mi Calm Calm - N/A   Mostly Cloudy
8:16 PM 35.1 °F - 28.0 °F 76% 30.12 in 10.0 mi Calm Calm - N/A   Mostly Cloudy
8:35 PM 35.8 °F 33.0 °F 28.8 °F 76% 30.11 in 10.0 mi NNE 3.5 mph - N/A   Overcast
8:55 PM 37.0 °F - 29.3 °F 74% 30.12 in 10.0 mi Calm Calm - N/A   Overcast
9:15 PM 38.3 °F 34.8 °F 30.0 °F 72% 30.11 in 10.0 mi NE 4.6 mph - N/A   Overcast
9:35 PM 39.7 °F 35.6 °F 30.2 °F 69% 30.11 in 10.0 mi NE 5.8 mph - N/A   Overcast
9:56 PM 40.5 °F 35.8 °F 30.4 °F 67% 30.11 in 10.0 mi NNE 6.9 mph - N/A   Overcast
10:15 PM 41.2 °F 36.6 °F 30.0 °F 65% 30.11 in 10.0 mi NE 6.9 mph - N/A   Overcast
10:35 PM 41.9 °F 40.0 °F 30.0 °F 63% 30.11 in 10.0 mi East 3.5 mph - N/A   Overcast
10:55 PM 42.8 °F 40.1 °F 29.8 °F 60% 30.11 in 10.0 mi ENE 4.6 mph - N/A   Overcast
11:15 PM 43.9 °F 42.3 °F 29.3 °F 57% 30.11 in 10.0 mi East 3.5 mph - N/A   Overcast
11:36 PM 45.9 °F 42.3 °F 28.4 °F 51% 30.11 in 10.0 mi East 6.9 mph - N/A   Overcast